Regional Weather Roundup
Issued by NWS

Home | Current Version | Previous Version | Graphics & Text | Print | Product List | Glossary On
Versions: 1 2 3 4 5 6 7 8 9 10 11 12 13 14 15 16 17 18 19 20 21 22 23 24 25 26 27 28 29 30 31 32 33 34 35 36 37 38 39 40 41 42 43 44 45 46 47 48 49 50
000
ASUS45 KABQ 211901
RWRNM
WEATHER ROUNDUP FOR NEW MEXICO
NATIONAL WEATHER SERVICE ALBUQUERQUE NM
1200 PM MST SUN DEC 21 2014

NOTE: "FAIR" MEANS FEW OR NO CLOUDS BELOW 12,000 FEET AGL WITH NO
       SIGNIFICANT WEATHER OR OBSTRUCTIONS TO VISION.

      THIS PRODUCT IS RELEASED AS TWO VERSIONS.  ONE VERSION NEAR
      THE TOP OF THE HOUR CONTAINING PRELIMINARY DATA FROM ALBUQUERQUE
      AND OTHER STATIONS.  A FINAL VERSION WITH ADDITIONAL DATA IS
      ISSUED ABOUT 10 MINUTES AFTER THE HOUR.

NMZ501-503-504-510>518-212000-
NORTHWEST PLATEAU/NORTHCENTRAL MOUNTAINS

CITY           SKY/WX    TMP DP  RH WIND       PRES   REMARKS
FARMINGTON     SUNNY     39  31  72 W8        30.04F WCI  33
SANTA FE       PTSUNNY   40  25  55 N16       29.98R WCI  31
TAOS           CLOUDY    36  25  64 SW15      29.98F WCI  26
ANGEL FIRE     FAIR      31  23  72 W16G31    29.93F WCI  20

$$
NMZ402-403-502-505>509-212000-
WESTCENTRAL MOUNTAINS/SOUTHWEST MOUNTAINS

CITY           SKY/WX    TMP DP  RH WIND       PRES   REMARKS
GALLUP         MOSUNNY   42  30  62 SW8       30.06F
GRANTS         MOSUNNY   50  25  38 N22       30.03F
SILVER CITY    MOSUNNY   48  28  46 NW16      30.09F

$$
NMZ407-409-411-412-212000-
SOUTHERN DESERTS

CITY           SKY/WX    TMP DP  RH WIND       PRES   REMARKS
LORDSBURG      FAIR      48  34  57 NW8       30.10F
DEMING         MOSUNNY   56  32  40 W13       30.03F
HOLLOMAN AFB   MOSUNNY   49  30  48 CALM      30.00F
ALAMOGORDO     MOSUNNY   50  28  43 CALM      30.03F
T OR C         MOSUNNY   54  26  34 SW9       29.99F

$$
NMZ519>523-212000-
CENTRAL VALLEYS/CENTRAL HIGHLANDS

CITY           SKY/WX    TMP DP  RH WIND       PRES   REMARKS
ALBUQUERQUE    PTSUNNY   43  28  55 NW7       30.03R
DOUBLE EAGLE   PTSUNNY   43  27  52 NW8       30.03R
MORIARTY ARPT  FAIR      47  24  40 NW24G36   29.96R
CLINES CORNERS MOSUNNY   41  25  53 NW38G45   29.88R
BELEN          FAIR      46  28  48 NE7       30.01R
SOCORRO        FAIR      46  25  44 S10       29.97F

$$
NMZ524>526-539-540-212000-
SOUTHCENTRAL MOUNTAINS

CITY           SKY/WX    TMP DP  RH WIND       PRES   REMARKS
RUIDOSO        SUNNY     48  25  40 NW28G40   29.92F

$$
NMZ527>531-212000-
NORTHEAST HIGHLANDS/NORTHEAST PLAINS

CITY           SKY/WX    TMP DP  RH WIND       PRES   REMARKS
LAS VEGAS      PTSUNNY   47  18  31 CALM      29.81F
RATON          CLOUDY    41  19  41 CALM      29.73F
CLAYTON        SUNNY     56  20  24 SW9       29.70F

$$
NMZ532>537-212000-
EASTCENTRAL PLAINS

CITY           SKY/WX    TMP DP  RH WIND       PRES   REMARKS
TUCUMCARI      SUNNY     60  14  16 W9        29.74F
CANNON AFB     SUNNY     56  26  31 W17G25    29.77F
CLOVIS AIRPORT SUNNY     55  27  33 W18       29.76F

$$
NMZ028-029-538-212000-
SOUTHEAST PLAINS

CITY           SKY/WX    TMP DP  RH WIND       PRES   REMARKS
ROSWELL        SUNNY     63  28  26 SE8       29.82F
ARTESIA        MOSUNNY   64  27  24 W12G17    29.86F
CARLSBAD       MOSUNNY   67  24  19 W21G28    29.87F
HOBBS          SUNNY     63  25  23 SW18G25   29.87F


$$


USA.gov is the U.S. government's official web portal to all federal, state and local government web resources and services.